Location: Newark
(48.5178°N, 4.2361°E)
Time: 02:04:21
(UTC+00:00)

Envisat - Pass Details

Date: 08 March 2021
Orbit: 764 x 766 km, 98.1° (Epoch: 11 April)

Event Time Altitude Azimuth Distance (km) Brightness Sun altitude
Rises 05:11:26 0° 16° (NNE) 3,245 6.5 -10.6°
Reaches altitude 10° 05:13:47 10° 21° (NNE) 2,313 5.8 -10.2°
Maximum altitude 05:18:49 59° 101° (E) 886 3.7 -9.4°
Drops below altitude 10° 05:23:49 10° 180° (S) 2,295 5.5 -8.6°
Sets 05:26:08 0° 185° (S) 3,216 6.2 -8.2°
